Location: *
(49.6619°S, 177.4603°W)
Time: 02:21:21
(UTC+00:00)

Cosmos 1606 - Pass Details

Date: 31 January 2023
Orbit: 488 x 510 km, 82.5° (Epoch: 20 March)

Event Time Altitude Azimuth Distance (km) Brightness Sun altitude
Exits shadow 08:57:25 - 346° (NNW) 2,617 6.0 -11.4°
Reaches altitude 10° 08:59:32 10° 344° (NNW) 1,740 5.1 -11.6°
Maximum altitude 09:03:20 71° 259° (W) 551 3.0 -12.1°
Drops below altitude 10° 09:07:10 10° 174° (S) 1,750 6.0 -12.5°
Sets 09:09:19 0° 171° (S) 2,638 6.9 -12.7°
